Terug naar catalogus

STARLINK-32597

ActiefCommunicatieVLEO
NORAD 62304·PAYLOAD·🇺🇸 United States

Gelanceerd Dec 13, 2024 vanaf Vandenberg Space Force Base

Loading…

Volgende Passages (komende 24 uur)

TLE

VersSource: CelesTrak SupGP

Epoch: Sep 15, 2026, 02:00 UTC

1 62304C 24239D   26258.08381944  .00021819  00000+0  64477-3 0  2584
2 62304  53.1606  18.8761 0001151  87.1358  30.8992 15.34374241    15

Volg STARLINK-32597 in realtime met AllMySat

Download on the App Store